This is the latest recevied weather packets stored in our database for station/object WC4PEM-9. If no packets are shown the sender has not sent any weather packets the latest 10 day(s).
| Time | Temp. | Humidity | Pressure | Rain* | Wind** | Luminosity | Snow |
|---|---|---|---|---|---|---|---|
| 1787767638 | 33.89° C | 58% | 1015.4 hPa | 0 mm | - | - | - |
| 1787767512 | 33.89° C | 56% | 1015.6 hPa | 0 mm | - | - | - |
| 1787767338 | 33.89° C | 56% | 1015.6 hPa | 0 mm | - | - | - |
| 1787767201 | 33.89° C | 59% | 1015.8 hPa | 0 mm | - | - | - |
| 1787767038 | 33.89° C | 59% | 1015.8 hPa | 0 mm | - | - | - |
| 1787766876 | 33.33° C | 62% | 1015.8 hPa | 0 mm | - | - | - |
| 1787766738 | 33.33° C | 62% | 1015.8 hPa | 0 mm | - | - | - |
| 1787766587 | 32.78° C | 59% | 1016.1 hPa | 0 mm | - | - | - |
| 1787766438 | 32.78° C | 59% | 1016.1 hPa | 0 mm | - | - | - |
| 1787766256 | 32.22° C | 63% | 1016.3 hPa | 0 mm | - | - | - |
| 1787766138 | 32.22° C | 63% | 1016.3 hPa | 0 mm | - | - | - |
| 1787765953 | 32.22° C | 62% | 1016.3 hPa | 0 mm | - | - | - |
| 1787765838 | 32.22° C | 62% | 1016.3 hPa | 0 mm | - | - | - |
| 1787765656 | 32.78° C | 62% | 1016.3 hPa | 0 mm | - | - | - |
| 1787765538 | 32.78° C | 62% | 1016.3 hPa | 0 mm | - | - | - |
| 1787765334 | 32.78° C | 61% | 1016.4 hPa | 0 mm | - | - | - |
| 1787765238 | 32.78° C | 61% | 1016.4 hPa | 0 mm | - | - | - |
| 1787764938 | 32.78° C | 61% | 1016.5 hPa | 0 mm | - | - | - |
| 1787764638 | 32.78° C | 62% | 1016.5 hPa | 0 mm | - | - | - |
| 1787764338 | 32.78° C | 60% | 1016.5 hPa | 0 mm | - | - | - |
| 1787764038 | 32.22° C | 62% | 1016.5 hPa | 0 mm | - | - | - |
| 1787763847 | 32.22° C | 64% | 1016.7 hPa | 0 mm | - | - | - |
| 1787763738 | 32.22° C | 64% | 1016.7 hPa | 0 mm | - | - | - |
| 1787763547 | 32.22° C | 62% | 1016.5 hPa | 0 mm | - | - | - |
| 1787763438 | 32.22° C | 62% | 1016.5 hPa | 0 mm | - | - | - |
* Rain latest hour (hover to see other rain measurements)
** Current wind speed in m/s (hover to see current wind gust speed)